GSAT0101 (GALILEO-PFM) 1 37846U 11060A 21112.08248308 -.00000071 00000-0 00000-0 0 9995 2 37846 56.8099 32.8219 0004240 358.0463 1.9536 1.70475201 59039 GSAT0102 (GALILEO-FM2) 1 37847U 11060B 21112.28495042 -.00000072 00000-0 00000-0 0 9998 2 37847 56.8107 32.8158 0005142 334.2096 196.2920 1.70475415 59045 FREGAT R/B 1 37848U 11060C 21112.39486649 -.00000069 00000-0 00000-0 0 9990 2 37848 56.8966 36.9710 0008220 316.9882 226.9529 1.67041644 57838